Location: Ferchesar
(52.6477°N, 12.4298°E)
Time: 09:45:27
(UTC+01:00)

Tiros 1 despin weight - Pass Details

Date: 15 December 2021
Orbit: 592 x 641 km, 48.2° (Epoch: 19 January)

Event Time Altitude Azimuth Distance (km) Brightness Sun altitude
Rises 10:53:39 0° 249° (WSW) 2,868 ? 12.5°
Reaches altitude 10° 10:56:01 10° 243° (WSW) 1,956 ? 12.6°
Maximum altitude 11:00:17 45° 171° (S) 829 ? 12.7°
Drops below altitude 10° 11:04:31 10° 99° (E) 1,934 ? 12.9°
Sets 11:06:51 0° 93° (E) 2,832 ? 13.0°
